Weather History for KTZR - March, 2013

Change the Weather History Date:

Saturday, March 30, 2013

  Actual Average Record
Temperature  
Mean Temperature 40 °F -  
Max Temperature 55 °F 56 °F 82 °F (1998)
Min Temperature 24 °F 37 °F 24 °F (2013)
Degree Days  
Heating Degree Days 26    
Moisture  
Dew Point 27 °F    
Average Humidity 73    
Maximum Humidity 93    
Minimum Humidity 29    
Precipitation  
Precipitation 0.00 in - - ()
Sea Level Pressure  
Sea Level Pressure 30.19 in    
Wind  
Wind Speed 2 mph (South)    
Max Wind Speed 7 mph    
Max Gust Speed 16 mph    
Visibility 9 miles    
Events      
Averages and records for this station are not official NWS values.
T = Trace of Precipitation, MM = Missing Value Source: NWS Daily Summary

Daily Weather History Graph

Daily Weather History Graph

Search for Another Location

Airport or City:

Trip Planner

Search our weather history database for the weather conditions in past years. The results will help you decide how hot, cold, wet, or windy it might be!

Date:

Astronomy

Mar. 30, 2013 Rise Set
Actual Time 7:19 AM EDT 7:55 PM EDT
Civil Twilight 6:52 AM EDT 8:22 PM EDT
Nautical Twilight 6:20 AM EDT 8:54 PM EDT
Astronomical Twilight 5:47 AM EDT 9:27 PM EDT
Moon No Moon Rise 9:13 AM EDT (3/30)
Length of Visible Light 13h 30m
Length of Day
12h 35m
Waning Gibbous, 86% of the Moon is Illuminated
Mar 30
Waning Gibbous
Apr 3
Last Quarter
Apr 10
New
Apr 18
First Quarter
Apr 25
Full

Hourly Weather History & Observations

Time (EDT) Temp. Windchill Dew Point Humidity Pressure Visibility Wind Dir Wind Speed Gust Speed Precip Events Conditions
12:15 AM 31.8 °F - 27.1 °F 83% 30.23 in 10.0 mi Calm Calm - N/A   Clear
12:35 AM 32.0 °F - 27.3 °F 83% 30.23 in 10.0 mi Calm Calm - N/A   Clear
12:55 AM 32.4 °F - 26.6 °F 79% 30.22 in 10.0 mi Calm Calm - N/A   Clear
1:15 AM 30.4 °F - 26.1 °F 84% 30.22 in 10.0 mi Calm Calm - N/A   Clear
1:35 AM 31.6 °F 28.3 °F 27.3 °F 84% 30.22 in 10.0 mi West 3.5 mph - N/A   Clear
1:55 AM 29.7 °F 26.1 °F 26.1 °F 86% 30.22 in 10.0 mi WNW 3.5 mph - N/A   Clear
2:15 AM 28.6 °F 24.8 °F 25.3 °F 88% 30.22 in 10.0 mi West 3.5 mph - N/A   Clear
2:35 AM 28.6 °F - 25.5 °F 88% 30.22 in 10.0 mi North - - N/A   Clear
2:55 AM 27.9 °F - 24.8 °F 88% 30.22 in 10.0 mi Calm Calm - N/A   Clear
3:15 AM 28.4 °F - 25.5 °F 89% 30.21 in 10.0 mi Calm Calm - N/A   Clear
3:35 AM 28.2 °F - 25.5 °F 90% 30.21 in 10.0 mi Calm Calm - N/A   Clear
3:55 AM 29.1 °F - 26.1 °F 88% 30.21 in 10.0 mi North - - N/A   Clear
4:15 AM 27.9 °F - 25.2 °F 90% 30.21 in 10.0 mi North - - N/A   Clear
4:35 AM 27.5 °F 21.1 °F 25.3 °F 92% 30.21 in 10.0 mi SSW 5.8 mph - N/A   Clear
4:55 AM 28.6 °F 24.8 °F 25.3 °F 88% 30.21 in 10.0 mi SSW 3.5 mph - N/A   Clear
5:15 AM 28.6 °F - 26.1 °F 90% 30.21 in 7.0 mi North - - N/A   Clear
5:35 AM 29.8 °F - 27.0 °F 89% 30.21 in 7.0 mi North - - N/A   Clear
5:55 AM 27.5 °F - 25.3 °F 92% 30.21 in 7.0 mi North - - N/A   Clear
6:15 AM 27.3 °F - 24.8 °F 90% 30.21 in 7.0 mi North - - N/A   Clear
6:35 AM 28.6 °F - 26.2 °F 91% 30.21 in 7.0 mi Calm Calm - N/A   Clear
6:55 AM 28.2 °F - 25.5 °F 90% 30.22 in 7.0 mi Calm Calm - N/A   Clear
7:15 AM 27.7 °F - 25.2 °F 90% 30.22 in 5.0 mi North - - N/A   Clear
7:50 AM 24.8 °F - 23.0 °F 93% 30.24 in 5.0 mi Calm Calm - N/A   Clear
8:57 AM 35.6 °F - 30.2 °F 81% 30.24 in 7.0 mi Calm Calm - N/A   Clear
9:50 AM 42.8 °F 41.1 °F 32.0 °F 66% 30.23 in 10.0 mi SSE 3.5 mph - N/A   Clear
11:50 AM 51.8 °F - 28.4 °F 41% 30.21 in 10.0 mi South 6.9 mph - N/A   Clear
12:58 PM 51.8 °F - 26.6 °F 38% 30.17 in 10.0 mi SSW 5.8 mph - N/A   Clear
1:47 PM 53.6 °F - 26.6 °F 35% 30.15 in 10.0 mi WSW 4.6 mph - N/A   Clear
2:47 PM 55.4 °F - 24.8 °F 31% 30.13 in 10.0 mi SSE 5.8 mph 16.1 mph N/A   Clear
3:47 PM 55.4 °F - 39.2 °F 54% 30.13 in 10.0 mi South 6.9 mph - N/A   Clear
4:47 PM 55.4 °F - 23.0 °F 29% 30.08 in 10.0 mi Calm Calm - N/A   Clear
5:47 PM 55.4 °F - 26.6 °F 33% 30.06 in 10.0 mi ESE 3.5 mph - N/A   Clear
6:50 PM 55.4 °F - 26.6 °F 33% 30.04 in 10.0 mi SE 6.9 mph - N/A   Clear
7:35 PM 52.2 °F - 29.7 °F 42% 30.03 in 10.0 mi SSE 3.5 mph - N/A   Clear
7:55 PM 51.8 °F - 28.2 °F 40% 30.03 in 10.0 mi SE 3.5 mph - N/A   Clear